Home   Weather   Battambang   Past weeks

Flag for Cambodia Past Weather in Battambang, Cambodia — Yesterday and Last 2 Weeks

Now
81 °F

Partly cloudy.


Feels Like: 89 °F
Forecast: 78 / 87 °F
Wind: 3 mph from Southwest

Location: Siemreap

Current Time: Sep 27, 2016 at 12:35:26 AM

Latest Report: Sep 26, 2016 at 11:30 PM


Visibility: 5 mi

Pressure: 29.74 "Hg

Humidity: 100%

Dew Point: 81 °F

Location of BattambangLocation

Past Weather in Battambang — Graph

°F

Battambang Temperature Yesterday

Maximum temperature yesterday: 88 °F (at 2:00 PM)
Minimum temperature yesterday: 81 °F (at 2:00 AM)
Average temperature yesterday: 84 °F

High & Low Weather Summary for the Past Weeks

 TemperatureHumidityPressure
High91 °F (Sep 16, 2:30 PM)100% (Sep 11, 11:00 PM)29.83 "Hg (Sep 11, 11:00 PM)
Low75 °F (Sep 21, 7:00 AM)59% (Sep 15, 2:30 PM)29.59 "Hg (Sep 16, 3:30 PM)
Average82 °F89%29.71 "Hg
* Reported Sep 11 11:00 PM — Sep 26 11:00 PM, Battambang, Weather by CustomWeather, © 2016

Note: Actual official high and low records may vary slightly from our data, if they occured in-between our weather recording intervals... More about our weather records

Advertising

Battambang Weather History for the Previous 24 Hours

Scroll right to see more
 ConditionsComfort  
Time TempWeatherWind HumidityBarometerVisibility
11:00 PM
Mon, Sep 26
81 °FPartly cloudy.5 mph100%29.77 "Hg5 mi
10:30 PM81 °FPartly cloudy.5 mph100%29.77 "Hg5 mi
9:30 PM82 °FThunderstorms. Passing clouds.5 mph100%29.77 "Hg5 mi
9:00 PM82 °FPassing clouds.6 mph94%29.74 "Hg5 mi
8:30 PM84 °FPassing clouds.5 mph84%29.74 "Hg5 mi
8:00 PM84 °FPassing clouds.5 mph84%29.71 "Hg5 mi
7:30 PM84 °FPassing clouds.6 mph84%29.71 "Hg6 mi
7:00 PM86 °FPassing clouds.1 mph84%29.68 "Hg6 mi
6:30 PM86 °FPassing clouds.1 mph79%29.68 "HgN/A
6:00 PM86 °FPassing clouds.No wind75%29.68 "HgN/A
5:30 PM86 °FScattered clouds.1 mph75%29.65 "HgN/A
5:00 PM88 °FScattered clouds.No wind62%29.65 "HgN/A
4:30 PM88 °FScattered clouds.1 mph62%29.62 "HgN/A
4:00 PM88 °FScattered clouds.1 mph66%29.62 "HgN/A
3:30 PM88 °FScattered clouds.2 mph66%29.65 "HgN/A
3:00 PM88 °FScattered clouds.3 mph70%29.65 "HgN/A
2:30 PM88 °FScattered clouds.3 mph70%29.65 "HgN/A
2:00 PM88 °FScattered clouds.3 mph70%29.65 "HgN/A
1:30 PM86 °FScattered clouds.3 mph79%29.68 "HgN/A
1:00 PM86 °FScattered clouds.No wind79%29.71 "HgN/A
12:30 PM84 °FScattered clouds.2 mph84%29.71 "HgN/A
12:00 PM84 °FScattered clouds.3 mph84%29.74 "Hg6 mi
11:30 AM84 °FScattered clouds.2 mph84%29.74 "Hg6 mi
11:00 AM84 °FScattered clouds.5 mph84%29.77 "Hg6 mi
10:30 AM84 °FScattered clouds.2 mph84%29.77 "Hg6 mi
10:00 AM84 °FScattered clouds.2 mph84%29.80 "Hg6 mi
9:30 AM82 °FScattered clouds.5 mph89%29.80 "Hg6 mi
9:00 AM82 °FScattered clouds.2 mph94%29.77 "Hg6 mi
8:30 AM82 °FRain. Scattered clouds.1 mph100%29.77 "Hg6 mi
8:00 AM81 °FScattered clouds.3 mph100%29.77 "Hg6 mi
7:30 AM81 °FScattered clouds.3 mph100%29.74 "Hg6 mi
7:00 AM81 °FScattered clouds.No windN/AN/A6 mi
2:00 AM81 °FPassing clouds.No wind100%29.71 "Hg5 mi
Weather by CustomWeather, © 2016

See weather overviewHow to use our weather pages